Showing default

FORMOSAT7-6/COSMIC2-6, 44353

Orbit data source: Space-Track

FORMOSAT7-6/COSMIC2-6, 44353 is a payload satellite owned by NSPO (TW) in LEO that was launched on Tue, 25 Jun 2019 UTC via an FALCON HEAVY launch vehicle from the Air Force Eastern Test Range (AFETR). Payload-class satellites include a variety of spacecraft equipped with specific instruments for various scientific and technological missions. These include communications satellites like Starlink; space stations such as the ISS; scientific satellites like the Hubble; Earth observation satellites from companies like Planet Labs, Umbra, and HawkEye 360; GPS; miniature CubeSats for education and research; and military/defense satellites.

Not visible in the next 10 days
Identifier
44353, 2019-036Q
Orbit
LEO
Country
Flag of TWTW / TWN
Related business
Manufacturer
SSTL (Astrium)
Mission
Operational Civil Weather
Bus & Motor
SSTL-100, Unknown motor
Mass
278 kg wet, 278 kg dry
Launch date (UTC)
2019-06-25 (7 years ago)
Launch vehicle
FALCON HEAVY
Launch site
Air Force Eastern Test Range (AFETR)
Object type
Payload
Rocket body
Debris
Shape & HBR
Box + 1 Pan, 1.5 m
Radar Cross Section
2.189 m², Large (>1 m²)

Expand to show TLE details & history
Last TLE update: 16 hours ago

TLE from 16 hours ago
0 FORMOSAT7-6/COSMIC2-6
1 44353U 19036Q   26094.27175302  .00004771  00000-0  38698-3 0  9992
2 44353  23.9971 107.8232 0000838 338.6013  21.4452 14.96190131370731
Epoch: 2026-04-04T06:31Z
TLE epoch observation values (Epoch: 2026-04-04T06:31:19.460Z)
Latitude
-0.00005°
Longitude
177.3981°
Altitude
576.028 km
Speed
7.576 km/s
True Right ascension
07h 11m 17s
True Declination
0° 00' 00"
Sunlit
Object was in daylight at epoch
Visualization orbit readout
Latitude
Unknown
Longitude
Unknown
Altitude
Unknown
Speed
Unknown
Apparent Right ascension
Unknown
Apparent Declination
Unknown
Sunlit
N/A
Visualization observer readout
Local Sidereal Time
04:28:09
Azimuth
Unknown
Elevation
Unknown
Doppler factor
Unknown
Orbital elements
Apogee altitude
584.031 km
Perigee altitude
582.865 km
Semi-major axis
6,961.585 km
Eccentricity
0.00008
Inclination
23.9971°
RAAN
107.8232°
Arg. of periapsis
338.6013°
True anomaly
21.44871°
Mean anomaly
21.4452°
Eccentric anomaly
21.44696°
Mean motion
3.73664 °/min
Orbital period
96.34 mins
BSTAR
0.00038698
Loading maneuver chart data...
Computing Atmospheric mass density...
Loading historical data...
Loading historical data...
Loading historical data...
Loading historical data...
Loading historical data...
Loading historical data...
Loading historical data...

Documentation

Showing up to 5 results
|